period_start,C,m1,H,J0,J1,J2,J3,J4,J5,JA,JB,JC,JD,JJ,JK,JN,#
2017-10-23 00:02:12,0.01,1.36,0.00,15.34,18.57,21.64,14.33,46.38,1014.63,2063.97,3008.03,2776.01,3188.69,600.31,610.90,43.25,0000 0000 0000 0000 000000
2017-10-23 00:07:14,0.01,1.36,0.00,15.35,18.57,21.63,14.31,46.41,1014.56,2063.97,3007.91,2775.96,3188.05,600.04,610.67,43.30,0000 0000 0000 0000 000000
2017-10-23 00:12:15,0.03,1.36,0.00,15.37,18.57,21.62,14.23,46.23,1014.39,2063.97,3007.15,2775.40,3187.99,599.96,610.42,43.35,0000 0000 0000 0000 000000
2017-10-23 00:17:17,0.01,1.36,0.00,15.36,18.57,21.60,14.29,46.23,1014.24,2063.98,3006.97,2775.02,3187.57,600.43,610.77,43.40,0000 0000 0000 0000 000000
2017-10-23 00:22:18,0.02,1.36,0.00,15.36,18.57,21.64,14.29,46.38,1014.24,2063.97,3006.28,2774.98,3187.03,599.82,610.44,43.45,0000 0000 0000 0000 000000
2017-10-23 00:27:20,0.03,1.36,0.00,15.38,18.57,21.63,14.28,46.43,1014.24,2063.98,3005.99,2774.30,3186.84,599.79,610.09,43.50,0000 0000 0000 0000 000000
2017-10-23 00:32:22,0.03,1.36,0.00,15.38,18.57,21.65,14.35,46.36,1014.22,2063.97,3005.21,2774.00,3186.09,600.56,610.94,43.55,0000 0000 0000 0000 000000
2017-10-23 00:37:24,0.01,1.36,0.00,15.38,18.57,21.63,14.24,46.40,1014.29,2063.97,3004.95,2773.84,3185.98,599.97,610.55,43.60,0000 0000 0000 0000 000000
2017-10-23 00:42:25,0.05,1.37,0.00,15.40,18.57,21.64,14.23,46.48,1014.45,2063.97,3004.22,2773.13,3185.56,599.90,610.48,43.65,0000 0000 0000 0000 000000
2017-10-23 00:47:27,0.00,1.37,0.00,15.41,18.58,21.67,14.21,46.39,1014.27,2063.98,3004.02,2773.01,3185.04,600.04,610.31,43.71,0000 0000 0000 0000 000000
2017-10-23 00:52:29,0.00,1.37,0.00,15.41,18.59,21.66,14.26,46.39,1014.21,2063.96,3003.95,2772.99,3184.99,600.14,610.51,43.76,0000 0000 0000 0000 000000
2017-10-23 00:57:31,0.04,1.37,0.00,15.42,18.59,21.65,14.31,46.48,1014.22,2063.97,3003.22,2772.57,3184.61,600.04,610.19,43.81,0000 0000 0000 0000 000000
2017-10-23 01:02:32,0.01,1.37,0.00,15.44,18.59,21.66,14.30,46.34,1014.20,2063.94,3003.00,2772.07,3184.06,600.34,610.54,43.86,0000 0000 0000 0000 000000
2017-10-23 01:07:34,-0.01,1.37,0.00,15.44,18.59,21.70,14.26,46.51,1014.25,2063.87,3002.96,2772.00,3184.00,599.81,610.03,43.91,0000 0000 0000 0000 000000
2017-10-23 01:12:35,0.01,1.37,0.00,15.43,18.59,21.69,14.18,46.41,1014.20,2063.82,3002.55,2771.99,3184.00,599.74,609.82,43.96,0000 0000 0000 0000 000000
2017-10-23 01:17:37,-0.01,1.37,0.00,15.44,18.60,21.68,14.28,46.47,1014.20,2063.73,3002.05,2771.96,3183.87,599.81,609.95,44.01,0000 0000 0000 0000 000000
2017-10-23 01:22:38,0.03,1.37,0.00,15.45,18.61,21.68,14.27,46.35,1014.20,2063.74,3002.00,2771.76,3183.39,600.20,610.34,44.06,0000 0000 0000 0000 000000
2017-10-23 01:27:40,0.02,1.37,0.00,15.46,18.62,21.68,14.33,46.50,1014.19,2063.68,3001.46,2771.07,3183.01,600.17,610.29,44.11,0000 0000 0000 0000 000000
2017-10-23 01:32:41,0.02,1.37,0.00,15.47,18.62,21.70,14.29,46.54,1014.19,2063.71,3000.97,2770.99,3182.82,599.58,609.76,44.16,0000 0000 0000 0000 000000
2017-10-23 01:37:42,0.01,1.37,0.00,15.47,18.62,21.72,14.22,46.44,1014.19,2063.69,3000.75,2770.89,3182.23,599.94,610.12,44.21,0000 0000 0000 0000 000000
2017-10-23 01:42:43,0.01,1.37,0.00,15.48,18.62,21.71,14.22,46.56,1014.18,2063.38,3000.09,2770.26,3182.01,599.85,609.84,44.26,0000 0000 0000 0000 000000
2017-10-23 01:47:45,0.01,1.37,0.00,15.49,18.63,21.73,14.25,46.35,1014.18,2063.27,2999.98,2770.00,3181.97,599.77,609.69,44.31,0000 0000 0000 0000 000000
2017-10-23 01:52:46,0.02,1.38,0.00,15.50,18.64,21.73,14.30,46.38,1014.18,2063.34,2999.87,2770.00,3181.72,600.12,610.14,44.36,0000 0000 0000 0000 000000
2017-10-23 01:57:48,0.01,1.38,0.00,15.52,18.64,21.72,14.23,46.44,1014.18,2063.29,2999.29,2769.97,3181.09,599.78,609.81,44.41,0000 0000 0000 0000 000000
2017-10-23 02:02:49,0.01,1.38,0.00,15.52,18.64,21.72,14.19,46.38,1014.17,2063.14,2999.00,2769.41,3181.00,599.68,609.89,44.46,0000 0000 0000 0000 000000
2017-10-23 02:07:50,0.01,1.38,0.00,15.52,18.65,21.71,14.16,46.33,1014.16,2063.11,2998.97,2769.03,3180.96,599.67,609.76,44.51,0000 0000 0000 0000 000000
2017-10-23 02:12:51,0.01,1.38,0.00,15.53,18.67,21.74,14.26,46.48,1014.16,2063.06,2998.60,2769.00,3180.64,600.20,610.13,44.56,0000 0000 0000 0000 000000
2017-10-23 02:17:52,0.01,1.38,0.00,15.54,18.67,21.75,14.25,46.47,1014.15,2063.02,2998.04,2768.98,3180.06,600.03,609.91,44.61,0000 0000 0000 0000 000000
2017-10-23 02:22:54,0.01,1.38,0.00,15.55,18.67,21.76,14.25,46.37,1014.10,2063.01,2997.99,2768.81,3180.00,599.94,609.95,44.66,0000 0000 0000 0000 000000
2017-10-23 02:27:55,0.03,1.38,0.00,15.56,18.67,21.77,14.33,46.43,1014.06,2063.02,2997.55,2768.15,3179.98,600.37,610.07,44.72,0000 0000 0000 0000 000000
2017-10-23 02:32:57,0.01,1.38,0.00,15.57,18.69,21.83,14.17,46.38,1013.96,2063.02,2997.03,2768.01,3179.75,599.76,609.53,44.77,0000 0000 0000 0000 000000
2017-10-23 02:37:58,0.01,1.38,0.00,15.58,18.69,21.81,14.23,46.42,1013.82,2063.03,2997.00,2768.00,3179.21,599.82,609.52,44.82,0000 0000 0000 0000 000000
2017-10-23 02:43:00,0.01,1.38,0.00,15.58,18.69,21.77,14.23,46.32,1013.75,2063.02,2996.86,2767.97,3179.01,600.04,609.70,44.87,0000 0000 0000 0000 000000
2017-10-23 02:48:01,0.03,1.38,0.00,15.59,18.71,21.80,14.24,46.36,1013.75,2063.01,2996.30,2767.54,3178.97,599.75,609.29,44.92,0000 0000 0000 0000 000000
2017-10-23 02:53:02,0.02,1.38,0.00,15.61,18.72,21.81,14.21,46.44,1013.71,2063.00,2996.13,2767.08,3178.24,599.80,609.40,44.97,0000 0000 0000 0000 000000
2017-10-23 02:58:04,0.00,1.39,0.00,15.61,18.72,21.78,14.23,46.41,1013.69,2063.00,2996.05,2767.03,3178.01,599.97,609.48,45.02,0000 0000 0000 0000 000000
2017-10-23 03:03:05,0.00,1.39,0.00,15.63,18.73,21.87,14.28,46.40,1013.69,2062.99,2996.00,2767.00,3177.98,600.25,609.84,45.07,0000 0000 0000 0000 000000
2017-10-23 03:08:07,0.02,1.39,0.00,15.64,18.74,21.84,14.26,46.42,1013.69,2062.98,2995.72,2766.86,3177.65,600.25,609.71,45.12,0000 0000 0000 0000 000000
2017-10-23 03:13:08,0.03,1.39,0.00,15.66,18.74,21.82,14.21,46.37,1013.69,2062.97,2995.12,2766.22,3177.06,600.36,609.77,45.17,0000 0000 0000 0000 000000
2017-10-23 03:18:09,0.00,1.39,0.00,15.65,18.75,21.87,14.26,46.43,1013.69,2062.97,2995.00,2766.01,3177.00,599.92,609.38,45.22,0000 0000 0000 0000 000000
2017-10-23 03:23:10,0.00,1.39,0.00,15.68,18.77,21.86,14.22,46.32,1013.69,2062.95,2994.98,2766.00,3176.98,600.07,609.37,45.27,0000 0000 0000 0000 000000
2017-10-23 03:28:11,0.01,1.39,0.00,15.70,18.77,21.84,14.24,46.33,1013.69,2062.93,2994.72,2765.99,3176.72,600.03,609.48,45.32,0000 0000 0000 0000 000000
2017-10-23 03:33:12,0.02,1.39,0.00,15.70,18.79,21.88,14.24,46.44,1013.68,2062.83,2994.06,2765.66,3176.07,599.84,609.16,45.37,0000 0000 0000 0000 000000
2017-10-23 03:38:14,0.01,1.39,0.00,15.72,18.79,21.88,14.22,46.33,1013.68,2062.80,2994.00,2765.06,3176.00,600.25,609.56,45.42,0000 0000 0000 0000 000000
2017-10-23 03:43:15,-0.03,1.39,0.00,15.73,18.80,21.88,14.25,46.34,1013.57,2062.36,2993.70,2765.00,3175.90,600.18,609.40,45.47,0000 0000 0000 0000 000000
2017-10-23 03:48:16,0.02,1.39,0.00,15.75,18.82,21.88,14.19,46.29,1013.48,2062.26,2993.04,2764.87,3175.25,600.11,609.24,45.52,0000 0000 0000 0000 000000
2017-10-23 03:53:17,0.01,1.39,0.00,15.77,18.82,21.92,14.21,46.28,1013.36,2062.08,2992.96,2764.19,3174.99,599.68,608.74,45.57,0000 0000 0000 0000 000000
2017-10-23 03:58:19,0.03,1.39,0.00,15.81,18.84,21.95,14.30,46.33,1013.24,2062.05,2992.23,2764.00,3174.47,600.58,609.40,45.62,0000 0000 0000 0000 000000
2017-10-23 04:03:20,0.00,1.39,0.00,15.83,18.84,21.98,14.21,46.27,1013.26,2062.03,2991.97,2763.87,3174.01,599.85,608.66,45.68,0000 0000 0000 0000 000000
2017-10-23 04:08:21,0.04,1.39,0.00,15.88,18.86,22.00,14.23,46.37,1013.26,2062.02,2991.29,2763.11,3173.72,599.71,608.40,45.73,0000 0000 0000 0000 000000
2017-10-23 04:13:22,0.01,1.40,0.00,15.90,18.87,21.99,14.21,46.33,1013.28,2062.01,2990.99,2763.00,3173.03,600.09,608.81,45.78,0000 0000 0000 0000 000000
2017-10-23 04:18:24,0.01,1.40,0.00,15.92,18.88,22.01,14.20,46.37,1013.21,2062.00,2990.56,2762.89,3172.99,599.79,608.43,45.83,0000 0000 0000 0000 000000
2017-10-23 04:23:25,0.03,1.40,0.00,15.92,18.89,22.03,14.27,46.32,1013.22,2062.00,2990.02,2762.21,3172.88,600.62,609.20,45.88,0000 0000 0000 0000 000000
2017-10-23 04:28:26,0.01,1.40,0.00,15.93,18.92,22.01,14.20,46.33,1013.22,2062.00,2989.88,2762.00,3172.30,600.08,608.56,45.93,0000 0000 0000 0000 000000
2017-10-23 04:33:28,0.01,1.40,0.00,15.94,18.93,22.00,14.20,46.33,1013.21,2062.00,2989.40,2761.98,3172.00,599.70,608.27,45.98,0000 0000 0000 0000 000000
2017-10-23 04:38:29,0.00,1.40,0.00,15.97,18.94,22.01,14.20,46.33,1013.21,2062.00,2989.03,2761.95,3171.97,599.96,608.48,46.03,0000 0000 0000 0000 000000
2017-10-23 04:43:31,0.03,1.40,0.00,15.98,18.97,22.03,14.19,46.27,1013.29,2061.98,2989.00,2761.32,3171.64,600.08,608.77,46.08,0000 0000 0000 0000 000000
2017-10-23 04:48:32,0.02,1.40,0.00,15.98,18.98,22.10,14.28,46.43,1013.33,2061.99,2988.58,2761.01,3171.04,600.01,608.55,46.13,0000 0000 0000 0000 000000
2017-10-23 04:53:33,-0.01,1.40,0.00,15.98,18.99,22.15,14.16,46.38,1013.26,2061.88,2988.08,2760.99,3170.97,599.79,608.28,46.18,0000 0000 0000 0000 000000
2017-10-23 04:58:34,0.00,1.40,0.00,15.99,19.02,22.13,14.22,46.46,1013.21,2061.67,2988.00,2760.80,3170.43,599.74,608.21,46.23,0000 0000 0000 0000 000000
2017-10-23 05:03:36,-0.02,1.40,0.00,16.01,19.03,22.14,14.27,46.33,1013.20,2061.21,2987.96,2760.11,3170.01,600.53,608.79,46.28,0000 0000 0000 0000 000000
2017-10-23 05:08:37,0.01,1.40,0.00,16.02,19.04,22.19,14.28,46.35,1013.20,2061.10,2987.29,2760.00,3169.98,599.85,608.25,46.33,0000 0000 0000 0000 000000
2017-10-23 05:13:38,0.01,1.40,0.00,16.03,19.07,22.15,14.21,46.36,1013.20,2061.03,2987.00,2759.99,3169.53,600.01,608.31,46.38,0000 0000 0000 0000 000000
2017-10-23 05:18:39,0.04,1.40,0.00,16.03,19.07,22.20,14.19,46.33,1013.20,2061.01,2986.65,2759.53,3169.05,600.11,608.47,46.43,0000 0000 0000 0000 000000
2017-10-23 05:23:40,0.01,1.41,0.00,16.03,19.09,22.16,14.22,46.44,1013.20,2061.01,2986.05,2759.01,3168.99,600.04,608.47,46.48,0000 0000 0000 0000 000000
2017-10-23 05:28:42,0.00,1.41,0.00,16.04,19.10,22.20,14.17,46.38,1013.20,2061.00,2986.00,2759.00,3168.85,600.03,608.24,46.53,0000 0000 0000 0000 000000
2017-10-23 05:33:43,0.03,1.41,0.00,16.04,19.12,22.20,14.26,46.35,1013.20,2061.00,2985.52,2758.93,3168.28,599.73,608.07,46.58,0000 0000 0000 0000 000000
2017-10-23 05:38:44,0.02,1.41,0.00,16.05,19.13,22.20,14.18,46.42,1013.19,2061.00,2985.02,2758.29,3168.01,599.57,607.98,46.64,0000 0000 0000 0000 000000
2017-10-23 05:43:45,0.00,1.41,0.00,16.06,19.14,22.22,14.24,46.36,1013.18,2061.00,2985.00,2758.05,3167.97,600.02,608.35,46.69,0000 0000 0000 0000 000000
2017-10-23 05:48:46,0.01,1.41,0.00,16.06,19.14,22.25,14.26,46.41,1013.11,2060.98,2984.99,2758.00,3167.52,600.19,608.39,46.74,0000 0000 0000 0000 000000
2017-10-23 05:53:48,0.01,1.41,0.00,16.05,19.16,22.24,14.19,46.34,1013.09,2060.98,2984.86,2757.99,3167.10,599.95,608.13,46.79,0000 0000 0000 0000 000000
2017-10-23 05:58:50,0.01,1.41,0.00,16.05,19.17,22.33,14.23,46.44,1013.09,2060.98,2984.30,2757.98,3167.01,599.60,607.78,46.84,0000 0000 0000 0000 000000
2017-10-23 06:03:50,0.01,1.41,0.00,16.06,19.17,22.26,14.22,46.25,1013.12,2060.96,2984.02,2757.66,3166.99,600.14,608.27,46.89,0000 0000 0000 0000 000000
2017-10-23 06:08:52,0.01,1.41,0.00,16.04,19.19,22.27,14.21,46.23,1013.11,2060.87,2983.94,2757.05,3166.63,600.06,608.33,46.94,0000 0000 0000 0000 000000
2017-10-23 06:13:53,0.02,1.41,0.00,16.05,19.19,22.29,14.15,46.14,1013.01,2060.83,2983.35,2757.00,3166.12,599.70,607.90,46.99,0000 0000 0000 0000 000000
2017-10-23 06:18:54,-0.00,1.41,0.00,16.05,19.19,22.28,14.23,46.33,1012.93,2060.82,2983.05,2757.00,3166.00,600.04,608.27,47.04,0000 0000 0000 0000 000000
2017-10-23 06:23:55,-0.02,1.41,0.00,16.04,19.19,22.31,14.19,46.27,1012.90,2060.65,2982.97,2756.91,3166.00,599.83,608.05,47.09,0000 0000 0000 0000 000000
2017-10-23 06:28:57,0.03,1.41,0.00,16.07,19.20,22.29,14.26,46.33,1012.83,2060.59,2982.58,2756.33,3165.99,600.02,608.05,47.14,0000 0000 0000 0000 000000
2017-10-23 06:33:58,0.02,1.41,0.00,16.11,19.21,22.33,14.23,46.27,1012.76,2060.59,2982.22,2756.06,3165.66,600.17,608.05,47.19,0000 0000 0000 0000 000000
2017-10-23 06:38:59,-0.02,1.41,0.00,16.14,19.22,22.37,14.16,46.17,1012.74,2060.23,2982.07,2756.01,3165.06,599.86,607.63,47.24,0000 0000 0000 0000 000000
2017-10-23 06:44:00,0.00,1.41,0.00,16.16,19.22,22.35,14.17,46.13,1012.74,2060.26,2981.99,2756.00,3165.01,599.95,607.57,47.29,0000 0000 0000 0000 000000
2017-10-23 06:49:02,-0.01,1.41,0.00,16.19,19.23,22.37,14.16,46.14,1012.72,2060.22,2981.95,2755.98,3164.99,599.79,607.43,47.34,0000 0000 0000 0000 000000
2017-10-23 06:54:03,0.01,1.41,0.00,16.18,19.24,22.35,14.20,46.16,1012.72,2060.06,2981.56,2755.85,3164.96,600.01,607.74,47.39,0000 0000 0000 0000 000000
2017-10-23 06:59:04,0.03,1.41,0.00,16.16,19.25,22.36,14.18,46.17,1012.74,2060.06,2981.15,2755.38,3164.51,599.88,607.62,47.44,0000 0000 0000 0000 000000
2017-10-23 07:04:06,0.01,1.42,0.00,16.19,19.27,22.39,14.16,46.23,1012.73,2060.02,2981.00,2755.05,3164.02,599.90,607.58,47.49,0000 0000 0000 0000 000000
2017-10-23 07:09:07,0.00,1.42,0.00,16.24,19.28,22.40,14.14,46.22,1012.71,2060.01,2980.96,2755.00,3164.00,600.04,607.54,47.55,0000 0000 0000 0000 000000
2017-10-23 07:14:08,0.01,1.42,0.00,16.29,19.29,22.43,14.20,46.16,1012.72,2060.00,2980.30,2754.98,3163.98,600.03,607.54,47.60,0000 0000 0000 0000 000000
2017-10-23 07:19:09,0.01,1.42,0.00,16.36,19.31,22.43,14.16,46.17,1012.72,2060.00,2980.08,2754.83,3163.42,599.91,607.25,47.65,0000 0000 0000 0000 000000
2017-10-23 07:24:11,0.02,1.42,0.00,16.41,19.33,22.47,14.26,46.32,1012.73,2059.99,2980.00,2754.10,3163.02,600.06,607.46,47.70,0000 0000 0000 0000 000000
2017-10-23 07:29:12,0.00,1.42,0.00,16.43,19.34,22.51,14.12,46.18,1012.72,2059.99,2979.95,2754.01,3162.98,600.01,607.32,47.75,0000 0000 0000 0000 000000
2017-10-23 07:34:13,0.02,1.42,0.00,16.47,19.37,22.53,14.14,46.18,1012.73,2059.98,2979.17,2753.97,3162.78,599.64,606.79,47.80,0000 0000 0000 0000 000000
2017-10-23 07:39:14,0.03,1.42,0.00,16.51,19.39,22.56,14.08,46.17,1012.73,2059.97,2978.99,2753.47,3162.07,599.51,606.76,47.85,0000 0000 0000 0000 000000
2017-10-23 07:44:15,0.00,1.42,0.00,16.54,19.41,22.60,14.19,46.15,1012.73,2059.92,2978.96,2753.03,3161.99,599.86,606.88,47.90,0000 0000 0000 0000 000000
2017-10-23 07:49:17,-0.03,1.42,0.00,16.57,19.43,22.63,14.12,46.18,1012.73,2059.37,2978.28,2752.99,3161.39,600.09,607.09,47.95,0000 0000 0000 0000 000000
2017-10-23 07:54:18,-0.00,1.42,0.00,16.59,19.46,22.67,14.15,45.97,1012.73,2059.11,2978.00,2752.76,3161.01,599.86,606.78,48.00,0000 0000 0000 0000 000000
2017-10-23 07:59:20,0.02,1.42,0.00,16.62,19.48,22.69,14.13,46.23,1012.73,2059.03,2977.69,2752.06,3160.97,599.80,606.64,48.05,0000 0000 0000 0000 000000
2017-10-23 08:04:21,0.01,1.42,0.00,16.63,19.51,22.72,14.17,46.12,1012.72,2059.00,2977.03,2752.00,3160.67,599.91,606.82,48.10,0000 0000 0000 0000 000000
2017-10-23 08:09:22,0.03,1.42,0.00,16.66,19.53,22.76,14.11,46.07,1012.72,2059.02,2976.38,2751.91,3160.06,599.69,606.31,48.15,0000 0000 0000 0000 000000
2017-10-23 08:14:23,0.02,1.43,0.00,16.68,19.56,22.78,14.19,46.16,1012.71,2059.01,2976.03,2751.22,3159.98,600.26,607.07,48.20,0000 0000 0000 0000 000000
2017-10-23 08:19:24,0.01,1.43,0.00,16.70,19.59,22.79,14.20,45.96,1012.72,2059.00,2975.97,2751.00,3159.37,600.44,607.14,48.25,0000 0000 0000 0000 000000
2017-10-23 08:24:26,0.01,1.43,0.00,16.69,19.61,22.81,14.16,46.14,1012.72,2059.00,2975.65,2751.00,3159.01,599.99,606.53,48.30,0000 0000 0000 0000 000000
2017-10-23 08:29:27,0.02,1.43,0.00,16.72,19.64,22.86,14.19,46.10,1012.72,2058.97,2975.04,2750.76,3158.93,600.14,606.79,48.35,0000 0000 0000 0000 000000
2017-10-23 08:34:28,0.04,1.43,0.00,16.71,19.67,22.87,14.17,46.17,1012.72,2058.96,2974.74,2750.07,3158.36,600.34,606.91,48.40,0000 0000 0000 0000 000000
2017-10-23 08:39:29,0.01,1.43,0.00,16.73,19.69,22.91,14.23,46.06,1012.73,2058.96,2974.02,2749.98,3158.02,600.40,607.00,48.46,0000 0000 0000 0000 000000
2017-10-23 08:44:30,0.01,1.43,0.00,16.75,19.72,22.92,14.16,46.04,1012.72,2058.91,2973.97,2749.73,3157.71,600.36,606.82,48.51,0000 0000 0000 0000 000000
2017-10-23 08:49:31,-0.05,1.43,0.00,16.76,19.74,22.92,14.13,46.18,1012.72,2058.20,2973.99,2749.18,3157.02,599.90,606.47,48.56,0000 0000 0000 0000 000000
2017-10-23 08:54:33,0.02,1.43,0.00,16.75,19.77,22.95,14.11,46.15,1012.72,2058.01,2973.40,2748.99,3156.60,599.99,606.56,48.61,0000 0000 0000 0000 000000
2017-10-23 08:59:34,0.03,1.43,0.00,16.77,19.79,22.98,14.13,46.10,1012.71,2058.00,2972.97,2748.38,3156.02,599.93,606.36,48.66,0000 0000 0000 0000 000000
2017-10-23 09:04:36,0.03,1.43,0.00,16.78,19.82,22.98,14.21,46.16,1012.71,2058.00,2972.13,2748.00,3155.49,600.53,607.02,48.71,0000 0000 0000 0000 000000
2017-10-23 09:09:37,0.03,1.43,0.00,16.79,19.83,23.02,14.18,46.08,1012.71,2058.00,2971.67,2747.50,3154.99,599.80,606.31,48.76,0000 0000 0000 0000 000000
2017-10-23 09:14:38,0.02,1.44,0.00,16.80,19.85,23.05,14.15,46.13,1012.73,2057.99,2970.99,2747.01,3154.40,600.09,606.54,48.81,0000 0000 0000 0000 000000
2017-10-23 09:19:39,0.05,1.44,0.00,16.80,19.87,23.05,14.11,45.94,1012.71,2057.98,2970.17,2746.28,3153.92,599.81,606.17,48.86,0000 0000 0000 0000 000000
2017-10-23 09:24:41,0.03,1.44,0.00,16.81,19.89,23.07,14.13,46.07,1012.72,2057.98,2969.33,2745.87,3153.11,599.65,606.11,48.91,0000 0000 0000 0000 000000
2017-10-23 09:29:42,0.04,1.44,0.00,16.82,19.90,23.09,14.14,46.17,1012.71,2057.94,2968.64,2745.08,3152.57,599.71,606.17,48.96,0000 0000 0000 0000 000000
2017-10-23 09:34:43,0.05,1.45,0.00,16.83,19.92,23.11,14.15,46.16,1012.71,2057.91,2967.74,2744.38,3151.65,599.89,606.17,49.01,0000 0000 0000 0000 000000
2017-10-23 09:39:44,0.01,1.45,0.00,16.84,19.93,23.11,14.21,46.08,1012.71,2057.36,2966.56,2743.39,3150.45,599.79,606.07,49.06,0000 0000 0000 0000 000000
2017-10-23 09:44:46,0.06,1.45,0.00,16.84,19.94,23.13,14.18,46.14,1012.71,2057.16,2965.28,2742.19,3149.15,599.78,606.17,49.11,0000 0000 0000 0000 000000
2017-10-23 09:49:47,0.10,1.45,0.00,16.84,19.97,23.12,14.19,46.14,1012.71,2057.02,2963.73,2740.77,3147.57,600.18,606.34,49.16,0000 0000 0000 0000 000000
2017-10-23 09:54:48,0.08,1.46,0.00,16.83,19.98,23.16,14.26,46.09,1012.71,2057.01,2962.34,2739.54,3146.24,600.23,606.64,49.21,0000 0000 0000 0000 000000
2017-10-23 09:59:50,0.09,1.46,0.00,16.83,19.99,23.21,14.16,46.24,1012.71,2057.00,2960.75,2738.33,3144.81,599.78,606.17,49.26,0000 0000 0000 0000 000000
2017-10-23 10:04:51,0.09,1.47,0.00,16.85,20.00,23.21,14.09,46.06,1012.71,2057.00,2959.23,2736.97,3143.45,599.84,606.41,49.31,0000 0000 0000 0000 000000
2017-10-23 10:09:52,0.11,1.47,0.00,16.86,20.02,23.20,14.12,45.95,1012.69,2057.00,2957.42,2735.50,3141.76,599.79,606.12,49.36,0000 0000 0000 0000 000000
2017-10-23 10:14:54,0.12,1.48,0.00,16.85,20.03,23.22,14.17,46.06,1012.60,2057.00,2955.48,2733.75,3140.05,599.88,606.15,49.42,0000 0000 0000 0000 000000
2017-10-23 10:19:55,0.10,1.49,0.00,16.85,20.04,23.22,14.15,46.11,1012.65,2057.00,2953.67,2732.29,3138.33,600.20,606.55,49.47,0000 0000 0000 0000 000000
2017-10-23 10:24:57,0.09,1.49,0.00,16.85,20.05,23.23,14.16,46.12,1012.64,2057.00,2952.20,2730.93,3136.77,599.80,606.16,49.52,0000 0000 0000 0000 000000
2017-10-23 10:29:58,0.08,1.49,0.00,16.86,20.07,23.23,14.12,46.04,1012.59,2056.98,2950.75,2729.74,3135.47,599.88,606.13,49.57,0000 0000 0000 0000 000000
2017-10-23 10:34:59,0.06,1.50,0.00,16.88,20.07,23.25,14.13,46.15,1012.56,2056.98,2949.52,2728.75,3134.56,599.95,606.18,49.62,0000 0000 0000 0000 000000
2017-10-23 10:40:00,0.05,1.50,0.00,16.86,20.09,23.25,14.15,46.17,1012.45,2056.98,2948.43,2727.88,3133.75,599.79,605.93,49.67,0000 0000 0000 0000 000000
2017-10-23 10:45:01,0.06,1.51,0.00,16.87,20.09,23.26,14.19,46.24,1012.34,2056.98,2947.26,2727.03,3132.75,599.82,606.06,49.72,0000 0000 0000 0000 000000
2017-10-23 10:50:03,0.05,1.51,0.00,16.88,20.11,23.28,14.17,46.11,1012.29,2056.96,2946.46,2726.15,3131.91,600.05,606.08,49.77,0000 0000 0000 0000 000000
2017-10-23 10:55:04,0.06,1.51,0.00,16.89,20.12,23.31,14.15,46.08,1012.27,2056.98,2945.52,2725.56,3131.08,600.11,606.17,49.82,0000 0000 0000 0000 000000
2017-10-23 11:00:06,0.04,1.51,0.00,16.89,20.13,23.28,14.10,46.06,1012.25,2056.97,2944.71,2724.81,3130.28,599.65,605.66,49.87,0000 0000 0000 0000 000000
2017-10-23 11:05:07,0.03,1.52,0.00,16.88,20.14,23.31,14.24,46.13,1012.24,2056.79,2943.74,2723.95,3129.32,600.05,605.98,49.92,0000 0000 0000 0000 000000
2017-10-23 11:10:08,0.06,1.52,0.00,16.91,20.16,23.31,14.18,46.00,1012.23,2056.75,2942.74,2723.09,3128.39,600.03,605.92,49.97,0000 0000 0000 0000 000000
2017-10-23 11:15:10,0.02,1.52,0.00,16.89,20.17,23.31,14.14,46.13,1012.23,2056.44,2941.74,2722.24,3127.31,599.66,605.67,50.02,0000 0000 0000 0000 000000
2017-10-23 11:20:11,0.07,1.52,0.00,16.90,20.17,23.30,14.09,46.17,1012.24,2056.06,2940.54,2720.93,3125.71,600.00,605.94,50.07,0000 0000 0000 0000 000000
2017-10-23 11:25:12,0.08,1.53,0.00,16.91,20.18,23.33,14.09,46.13,1012.23,2056.01,2938.99,2719.76,3124.54,599.71,605.72,50.12,0000 0000 0000 0000 000000
2017-10-23 11:30:13,0.08,1.53,0.00,16.89,20.19,23.32,14.10,46.31,1012.22,2056.01,2937.73,2718.61,3123.31,599.69,605.65,50.17,0000 0000 0000 0000 000000
2017-10-23 11:35:14,0.09,1.54,0.00,16.90,20.19,23.32,14.15,46.16,1012.22,2056.02,2936.37,2717.42,3121.78,600.02,606.08,50.22,0000 0000 0000 0000 000000
2017-10-23 11:40:16,0.08,1.54,0.00,16.90,20.19,23.32,14.14,46.08,1012.22,2056.01,2934.93,2716.18,3120.53,600.26,606.17,50.27,0000 0000 0000 0000 000000
2017-10-23 11:45:17,0.08,1.55,0.00,16.89,20.19,23.32,14.21,46.15,1012.22,2056.00,2933.51,2715.03,3119.28,599.83,605.76,50.33,0000 0000 0000 0000 000000
2017-10-23 11:50:18,0.07,1.55,0.00,16.89,20.20,23.34,14.14,46.15,1012.21,2056.00,2932.32,2713.91,3118.00,600.03,605.93,50.38,0000 0000 0000 0000 000000
2017-10-23 11:55:20,0.10,1.55,0.00,16.89,20.20,23.33,14.20,46.20,1012.20,2056.00,2930.91,2712.75,3116.73,600.01,605.96,50.43,0000 0000 0000 0000 000000
2017-10-23 12:00:21,0.12,1.56,0.00,16.89,20.21,23.35,14.09,46.25,1012.20,2056.00,2928.92,2711.16,3115.06,600.04,605.91,50.48,0000 0000 0000 0000 000000
2017-10-23 12:05:23,0.13,1.57,0.00,16.89,20.21,23.36,14.19,46.18,1012.11,2056.00,2926.56,2709.23,3112.96,600.02,605.89,50.53,0000 0000 0000 0000 000000
2017-10-23 12:10:24,0.13,1.57,0.00,16.91,20.22,23.36,14.16,46.17,1011.99,2056.00,2924.42,2707.41,3110.96,600.10,605.81,50.58,0000 0000 0000 0000 000000
2017-10-23 12:15:25,0.13,1.58,0.00,16.91,20.22,23.36,14.27,46.23,1011.99,2056.00,2922.38,2705.53,3108.78,600.26,606.02,50.63,0000 0000 0000 0000 000000
2017-10-23 12:20:27,0.11,1.59,0.00,16.88,20.22,23.35,14.18,46.14,1011.92,2056.00,2920.60,2703.99,3107.00,599.75,605.53,50.68,0000 0000 0000 0000 000000
2017-10-23 12:25:28,0.12,1.59,0.00,16.89,20.22,23.36,14.16,46.11,1012.01,2056.00,2918.44,2702.22,3105.08,599.80,605.63,50.73,0000 0000 0000 0000 000000
2017-10-23 12:30:29,0.14,1.60,0.00,16.89,20.22,23.41,14.15,46.10,1012.03,2056.00,2916.29,2700.45,3103.19,600.11,605.95,50.78,0000 0000 0000 0000 000000
2017-10-23 12:35:30,0.13,1.61,0.00,16.89,20.22,23.38,14.07,46.23,1011.85,2056.00,2914.21,2698.65,3101.20,599.39,605.15,50.83,0000 0000 0000 0000 000000
2017-10-23 12:40:31,0.17,1.61,0.00,16.89,20.22,23.36,14.16,46.26,1011.77,2056.00,2911.60,2696.49,3098.83,600.07,605.57,50.88,0000 0000 0000 0000 000000
2017-10-23 12:45:33,0.19,1.62,0.00,16.89,20.22,23.38,14.11,46.10,1011.74,2055.99,2908.46,2693.83,3096.01,599.67,605.34,50.93,0000 0000 0000 0000 000000
2017-10-23 12:50:34,0.19,1.63,0.00,16.88,20.22,23.38,14.17,46.17,1011.74,2056.00,2905.47,2691.30,3093.20,600.29,605.91,50.98,0000 0000 0000 0000 000000
2017-10-23 12:55:35,0.18,1.64,0.00,16.89,20.22,23.37,14.09,46.18,1011.73,2056.00,2902.49,2688.78,3090.47,599.73,605.42,51.03,0000 0000 0000 0000 000000